Regional Weather Roundup
Issued by NWS

Home | Current Version | Previous Version | Graphics & Text | Print | Product List | Glossary Off
Versions: 1 2 3 4 5 6 7 8 9 10 11 12 13 14 15 16 17 18 19 20 21 22 23 24 25 26 27 28 29 30 31 32 33 34 35 36 37 38 39 40 41 42 43 44 45 46 47 48 49 50

000
ASUS43 KMKX 220320
RWRWI

WISCONSIN REGIONAL WEATHER ROUNDUP
NATIONAL WEATHER SERVICE MILWAUKEE/SULLIVAN WI
900 PM CST SUN JAN 21 2018

NOTE: "FAIR" INDICATES FEW OR NO CLOUDS BELOW 12,000 FEET WITH NO
SIGNIFICANT WEATHER AND/OR OBSTRUCTIONS TO VISIBILITY.

WIZ001-002-006>008-014>016-023>028-220400-
NORTHWEST WISCONSIN

CITY           SKY/WX    TMP DP  RH WIND       PRES   REMARKS
SUPERIOR ARPT  CLOUDY    31  31 100 NE10      30.07S FOG     WCI  22
ASHLAND        CLOUDY    31  31 100 NE8       30.07R FOG     WCI  23
HAYWARD        CLOUDY    31  27  85 NE8       30.00F WCI  23
SIREN          CLOUDY    33  28  83 NE7       30.00F WCI  26
CUMBERLAND     CLOUDY    34  28  80 NE8       29.96S WCI  27
RICE LAKE      CLOUDY    36  30  80 NE8       29.98S WCI  29
CHETEK         CLOUDY    37  30  75 NE6       29.96S WCI  33
LADYSMITH      CLOUDY    37  31  79 NE10      29.98S WCI  29
EAU CLAIRE     CLOUDY    37  30  75 NE7       29.94F WCI  32
MENOMONIE      CLOUDY    38  31  73 N7        29.95S WCI  33
NEW RICHMOND   CLOUDY    36  28  74 E5        29.96R WCI  32
OSCEOLA        CLOUDY    37  29  74 N3        29.99S
$$

WIZ003>005-009-010-017-018-220400-
NORTH CENTRAL WISCONSIN

CITY           SKY/WX    TMP DP  RH WIND       PRES   REMARKS
MANITOWISH WTR CLOUDY    30  30 100 N5        29.99S WCI  25
ARBOR VITAE    CLOUDY    34  31  90 NE7       29.98S WCI  28
WOODRUFF       CLOUDY    34  31  90 NE7       29.98S WCI  28
RHINELANDER    CLOUDY    35  31  85 NE5       29.97S WCI  31
EAGLE RIVER    CLOUDY    32  29  90 NE7       29.98S WCI  26
LAND O LAKES   CLOUDY    32  30  94 NE6       30.01S WCI  26
PHILLIPS       CLOUDY    34  31  88 NE8       29.96F WCI  27
TOMAHAWK       CLOUDY    34  30  83 NE3       29.97S
MEDFORD        CLOUDY    35  30  83 NE5       29.94S WCI  31
MERRILL        CLOUDY    35  31  87 NE6       29.96S WCI  30
$$

WIZ029-030-035-036-043>047-220400-
CENTRAL WISCONSIN

CITY           SKY/WX    TMP DP  RH WIND       PRES   REMARKS
WAUSAU         CLOUDY    38  30  73 E6        29.94S WCI  33
MOSINEE        CLOUDY    36  32  87 E12G18    29.95S WCI  27
MARSHFIELD     CLOUDY    37  30  75 NE9       29.92F WCI  30
STEVENS POINT  CLOUDY    36  30  80 E8        29.96S WCI  29
WAUPACA        CLOUDY    38  33  81 NE3       29.96S HAZE
WAUTOMA        CLOUDY    36  33  89 NE6       29.94F WCI  31
WISC RAPIDS    CLOUDY    38  30  73 E9        29.94S WCI  31
CAMP DOUGLAS   CLOUDY    37  36  93 E5        29.91S WCI  34
$$

WIZ011>013-019>022-031-037>040-048>050-220400-
NORTHEAST WISCONSIN

CITY           SKY/WX    TMP DP  RH WIND       PRES   REMARKS
ANTIGO         FAIR      35  30  83 E7        29.96S WCI  29
SHAWANO        CLOUDY    36  32  86 NE5       29.99R FOG     WCI  32
OCONTO         CLOUDY    32  32  99 CALM      30.00S
STURGEON BAY   LGT RAIN  34  33  96 NE3       30.00S VSB 1/4
GREEN BAY      FOG       34  32  92 NE5       29.98S VSB 1/2 WCI  30
MANITOWOC      LGT RAIN  36  36 100 NE3       29.98R VSB 1/2
APPLETON       CLOUDY    34  34 100 E5        29.94S FOG     WCI  30
CLINTONVILLE   CLOUDY    36  32  87 E7        29.98S FOG     WCI  30
OSHKOSH        FOG       34  33  96 NE8       29.93F VSB 1/4 WCI  27
$$

WIZ032>034-041-042-053>061-220400-
SOUTHWEST WISCONSIN

CITY           SKY/WX    TMP DP  RH WIND       PRES   REMARKS
LA CROSSE      CLOUDY    40  33  76 CALM      29.89F
SPARTA         CLOUDY    40  34  80 E9        29.91F WCI  33
VIROQUA        CLOUDY    37  37 100 E10       29.88R WCI  29
BOSCOBEL       LGT RAIN  38  36  92 E6        29.86F FOG     WCI  33
PRAIRIE DU CHI CLOUDY    37  35  96 CALM      29.85F FOG
PLATTEVILLE    CLOUDY    37  37 100 NE10      29.83R WCI  30
$$

WIZ056-057-062-063-064-067-068-220400-
SOUTH CENTRAL WISCONSIN

CITY           SKY/WX    TMP DP  RH WIND       PRES   REMARKS
REEDSBURG      DRIZZLE   35  35 100 NE3       29.89F
BARABOO/DELLS  FOG       35  34  97 NE8       29.89F VSB 3/4 WCI  28
LONE ROCK      LGT RAIN  38  38 100 E7        29.88F FOG     WCI  33
MINERAL POINT  CLOUDY    37  37 100 E8        29.83F FOG     WCI  31
MADISON        LGT RAIN  36  36 100 NE9       29.89F VSB 1   WCI  29
MIDDLETON      CLOUDY    38  38 100 E8        29.87F WCI  32
WATERTOWN      DRIZZLE   36  36 100 NE7       29.89F WCI  31
MONROE         RAIN      36  36 100 NE9       29.84R VSB 1/4 WCI  29
JANESVILLE     DRZL/FOG  37  37 100 E12       29.86F VSB 1   WCI  30
$$

WIZ051-052-058>065-066-070>072-220400-
SOUTHEAST WISCONSIN

CITY           SKY/WX    TMP DP  RH WIND       PRES   REMARKS
MILWAUKEE      LGT RAIN  38  37  97 NE8       29.91F VSB 1/2 WCI  32
WAUKESHA       FOG       34  34 100 E6        29.91F VSB 1/2 WCI  29
MILWAUKEE/TIMM FOG       36  34  93 CALM      29.92F VSB 1/2
RACINE         LGT RAIN  38  38 100 E8        29.91F VSB 1/2 WCI  32
BURLINGTON     FOG       36  35  97 NE5       29.88F VSB 3/4 WCI  32
KENOSHA        FOG       38  36  92 E8        29.89F VSB 1/4 WCI  32
FOND DU LAC    CLOUDY    36  33  89 NE8       29.93F FOG     WCI  30
SHEBOYGAN      LGT RAIN  35  35 100 NE8       29.95F VSB 1/2 WCI  29
WEST BEND      CLOUDY    34  34 100 E7        29.93S FOG     WCI  28
JUNEAU         DRIZZLE   35  34  99 NE6       29.92S WCI  30
$$

LSZ147-162-220400-
LAKE SUPERIOR

STATION/POSITION TIME  TEMP    WIND        PRES    WAVE
                       AIR SEA DIR/SP/G            HT/PER
                 (UTC) (F)     (DEG/KT/KT) (MB)    (FT/S)
DEVILS ISLAND    0300   29      60/ 20/ 23 1019.9R
SAXON HARBOR     0230   32      50/  8/  9 1017.3S
$$

LMZ867-665-643>646-220400-
LAKE MICHIGAN

STATION/POSITION TIME  TEMP    WIND        PRES    WAVE
                       AIR SEA DIR/SP/G            HT/PER
                 (UTC) (F)     (DEG/KT/KT) (MB)    (FT/S)
NORTHPORT PIER   0301   33      10/  2/  4 1016.6
KEWAUNEE LAKESHO 0254   34      30/  4/  6 1014.3F
SHEBOYGAN LAKESH 0300   36      50/ 11/ 12 1014.9F
PORT WASHINGTON  0230   36      40/  9/ 10 1014.9F
MILWAUKEE LAKESH 0300   35      30/  8/  9   N/A
KENOSHA   LAKESH 0300   36      70/  9/ 11 1012.5
$$

TC  - TEMPERATURE IN CELSIUS
VSB - VISIBILITY IN STATUTE MILES
WCI - WIND CHILL INDEX
HX  - HEAT INDEX





USA.gov is the U.S. government's official web portal to all federal, state and local government web resources and services.